Regional Weather Roundup
Issued by NWS Green Bay, WI

Home | Current Version | Previous Version | Graphics & Text | Print | Product List | Glossary Off
Versions: 1 2 3 4 5 6 7 8 9 10 11 12 13 14 15 16 17 18 19 20 21 22 23 24 25 26 27 28 29 30 31 32 33 34 35 36 37 38 39 40 41 42 43 44 45 46 47 48 49 50

000
ASUS43 KGRB 200359
RWRGRB

NORTH-CENTRAL AND NORTHEAST WISCONSIN REGIONAL WEATHER ROUNDUP
NATIONAL WEATHER SERVICE GREEN BAY WI
1100 PM CDT SAT APR 19 2014

WIZ005-009-010>012-018-019-200500-
NORTH CENTRAL WISCONSIN

CITY           SKY/WX    TMP DP  RH WIND       PRES   REMARKS
IRONWOOD       MOCLDY    48  37  66 S15G22    29.99F
MANITOWISH WTR NOT AVBL
ARBOR VITAE    NOT AVBL
EAGLE RIVER    NOT AVBL
LAND O LAKES   NOT AVBL
RHINELANDER    CLOUDY    46  37  71 S7        30.10F
PHILLIPS       NOT AVBL
ANTIGO         NOT AVBL
TOMAHAWK       NOT AVBL
MERRILL        NOT AVBL
$$

WIZ013-073-200500-
NORTHEAST WISCONSIN

CITY           SKY/WX    TMP DP  RH WIND       PRES   REMARKS
IRON MOUNTAIN  LGT RAIN  41  36  82 SE7       30.14F
MARINETTE      CLOUDY    45  34  65 S7        30.18S
$$

WIZ017-030-035>037-045-200500-
CENTRAL WISCONSIN

CITY           SKY/WX    TMP DP  RH WIND       PRES   REMARKS
MEDFORD        NOT AVBL
WAUSAU         CLOUDY    55  37  50 SE8       30.10F
MOSINEE        NOT AVBL
MARSHFIELD     CLOUDY    58  39  49 S12       30.08F
WISC RAPIDS    CLOUDY    60  35  39 S8        30.12F
STEVENS POINT  NOT AVBL
WAUPACA        NOT AVBL
SHAWANO        NOT AVBL
CLINTONVILLE   NOT AVBL
$$

WIZ038-039-048-051-200500-
FOX VALLEY

CITY           SKY/WX    TMP DP  RH WIND       PRES   REMARKS
NWS GREEN BAY  CLOUDY    50  38  63 S12       30.18F
APPLETON       MOCLDY    48  36  61 S14       30.18F
OSHKOSH        CLOUDY    49  37  63 S8        30.18S
FOND DU LAC    CLOUDY    51  36  56 S14       30.19S
$$

WIZ022-050-052-200500-
EAST CENTRAL WISCONSIN

CITY           SKY/WX    TMP DP  RH WIND       PRES   REMARKS
STURGEON BAY   CLOUDY    43  30  61 S14       30.19F
MANITOWOC      NOT AVBL
SHEBOYGAN      MOCLDY    40  33  76 S6        30.22F
$$

LMZ563-521-522-541>543-200500-
LAKESHORE

STATION/POSITION TIME  TEMP    WIND        PRES    VSBY  WAVE
                       AIR SEA DIR/SP/G                  HT/PER
                 (UTC) (F)     (DEG/KT/KT) (MB)    (MI)  (FT/S)
SHEBOYGAN LKSHOR 0300   41     170/  8/  9 1024.3F
KEWAUNEE LKSHORE 0300   38     180/ 11/ 12 1023.9F
NORTHPORT PIER   0300   37     150/  8/ 12 1023.0S
SISTER BAY LKSHO 0300   40     160/ 12/ 16   N/A
MENOMINEE LKSHOR 0300   42     170/  9/ 11 1022.8F
$$



USA.gov is the U.S. government's official web portal to all federal, state and local government web resources and services.